TimeAKDT,TemperatureF,Dew PointF,Humidity,Sea Level PressureIn,VisibilityMPH,Wind Direction,Wind SpeedMPH,Gust SpeedMPH,PrecipitationIn,Events,Conditions,WindDirDegrees,DateUTC
12:53 AM,42.1,36.0,79,30.52,10.0,ENE,10.4,-,N/A,,Overcast,70,2012-10-03 08:53:00
1:53 AM,41.0,37.0,86,30.52,10.0,East,8.1,-,N/A,,Overcast,90,2012-10-03 09:53:00
2:53 AM,41.0,36.0,82,30.52,10.0,East,9.2,-,N/A,,Overcast,80,2012-10-03 10:53:00
3:53 AM,42.1,35.1,76,30.51,10.0,ENE,8.1,-,0.00,,Overcast,70,2012-10-03 11:53:00
4:53 AM,41.0,36.0,82,30.50,10.0,ENE,8.1,-,N/A,,Overcast,70,2012-10-03 12:53:00
5:53 AM,39.9,37.0,89,30.50,10.0,East,5.8,-,N/A,,Overcast,90,2012-10-03 13:53:00
6:53 AM,41.0,37.0,86,30.48,10.0,East,9.2,-,N/A,,Overcast,80,2012-10-03 14:53:00
7:53 AM,41.0,37.0,86,30.48,10.0,East,8.1,-,N/A,,Overcast,90,2012-10-03 15:53:00
8:53 AM,42.1,37.9,85,30.49,10.0,East,4.6,-,N/A,,Overcast,80,2012-10-03 16:53:00
9:53 AM,43.0,37.9,82,30.49,10.0,East,13.8,-,N/A,,Overcast,80,2012-10-03 17:53:00
10:53 AM,43.0,37.0,80,30.50,10.0,East,11.5,-,N/A,,Overcast,90,2012-10-03 18:53:00
11:53 AM,45.0,37.9,76,30.50,10.0,East,8.1,-,N/A,,Overcast,80,2012-10-03 19:53:00
12:53 PM,46.0,37.0,71,30.50,10.0,East,6.9,-,N/A,,Overcast,80,2012-10-03 20:53:00
1:53 PM,46.0,39.0,76,30.50,10.0,Calm,Calm,-,N/A,,Overcast,0,2012-10-03 21:53:00
2:53 PM,46.9,37.9,71,30.49,10.0,ESE,10.4,-,N/A,,Overcast,110,2012-10-03 22:53:00
3:53 PM,48.0,34.0,58,30.49,10.0,SE,10.4,-,N/A,,Overcast,130,2012-10-03 23:53:00
4:53 PM,46.0,37.9,73,30.49,10.0,East,8.1,-,N/A,,Overcast,80,2012-10-04 00:53:00
5:53 PM,45.0,39.9,82,30.48,10.0,ENE,3.5,-,N/A,,Overcast,70,2012-10-04 01:53:00
6:53 PM,45.0,37.9,76,30.49,10.0,East,4.6,-,N/A,,Overcast,90,2012-10-04 02:53:00
7:53 PM,44.1,39.0,82,30.49,10.0,East,4.6,-,N/A,,Overcast,90,2012-10-04 03:53:00
8:53 PM,44.1,39.0,82,30.51,10.0,Calm,Calm,-,N/A,,Overcast,0,2012-10-04 04:53:00
9:53 PM,43.0,39.0,86,30.50,10.0,Calm,Calm,-,N/A,,Overcast,0,2012-10-04 05:53:00
10:53 PM,44.1,39.0,82,30.50,10.0,East,3.5,-,N/A,,Overcast,80,2012-10-04 06:53:00
11:53 PM,43.0,39.0,86,30.50,10.0,East,3.5,-,N/A,,Overcast,100,2012-10-04 07:53:00